Date String (YYYY-MM-DD hh:mm:ss) UTC,Instrument flags,absolute air pressure of the measurement (hPa),sample flow rate (lpm),inlet stack bypass flow (lpm),air temperature of the measurement (°C),ambient temperature measured by the external sensor (°C),aerosol sample conditioner tube jacket temperature (°C),OPC LED temperature (°C),internal box temperature (°C),relative humidity of the measurement (%),span deviation,mass concentration of particles derived from Lorenz-Mie calculation of OPC scattering (μg/m³),mass concentration of particles derived from Lorenz-Mie calculation of OPC scattering (μg/m³),mass concentration of particles derived from Lorenz-Mie calculation of OPC scattering (μg/m³)
DateTimeUTC,F1_M11,P_M11,Q1_M11,Q2_M11,T1_M11,T2_M11,T3_M11,T4_M11,T5_M11,U1_M11,ZSPAN_M11,X2_M11,X0_M11,X1_M11
2023-06-01 01:00:00,SystemResetWarning,0824.7,5.00,000.00,029.4,028.0,000.0,037.7,031.1,20.6,0000.0,0003.18,0007.14,0002.11
2023-06-01 01:01:00,SystemResetWarning,0824.7,5.01,000.00,029.4,028.0,000.0,037.7,031.1,21.7,0000.0,0003.18,0007.23,0002.13
2023-06-01 01:02:00,SystemResetWarning,0824.7,5.01,000.00,029.5,028.1,000.0,037.8,031.1,22.4,0000.0,0003.18,0007.12,0002.14
2023-06-01 01:03:00,SystemResetWarning,0824.7,4.99,000.00,029.5,028.1,000.0,037.8,031.1,22.1,0000.0,0003.17,0007.17,0002.12
2023-06-01 01:04:00,SystemResetWarning,0824.6,4.99,000.00,029.5,028.1,000.0,037.8,031.2,22.4,0000.0,0003.21,0006.88,0002.13
2023-06-01 01:05:00,SystemResetWarning,0824.6,5.00,000.00,029.5,028.2,000.0,037.8,031.2,21.9,0000.0,0003.21,0006.98,0002.13
2023-06-01 01:06:00,SystemResetWarning,0824.6,5.00,000.00,029.6,028.2,000.0,037.8,031.2,21.9,0000.0,0003.25,0007.20,0002.13
2023-06-01 01:07:00,SystemResetWarning,0824.5,5.00,000.00,029.6,028.2,000.0,037.8,031.2,22.0,0000.0,0003.24,0007.35,0002.14
2023-06-01 01:08:00,SystemResetWarning,0824.6,5.01,000.00,029.6,028.3,000.0,037.8,031.3,20.8,0000.0,0003.27,0007.86,0002.16
2023-06-01 01:09:00,SystemResetWarning,0824.6,5.00,000.00,029.6,028.3,000.0,037.9,031.3,21.2,0000.0,0003.27,0007.89,0002.17
2023-06-01 01:10:00,SystemResetWarning,0824.6,5.00,000.00,029.6,028.3,000.0,037.9,031.3,21.3,0000.0,0003.29,0007.99,0002.20
2023-06-01 01:11:00,SystemResetWarning,0824.6,5.00,000.00,029.7,028.3,000.0,037.9,031.3,21.2,0000.0,0003.32,0008.42,0002.23
2023-06-01 01:12:00,SystemResetWarning,0824.7,5.01,000.00,029.7,028.3,000.0,037.9,031.3,20.5,0000.0,0003.32,0009.09,0002.22
2023-06-01 01:13:00,SystemResetWarning,0824.7,4.99,000.00,029.7,028.4,000.0,037.9,031.4,20.5,0000.0,0003.31,0009.12,0002.21
2023-06-01 01:14:00,SystemResetWarning,0824.7,4.99,000.00,029.7,028.4,000.0,038.0,031.4,20.8,0000.0,0003.34,0009.17,0002.23
2023-06-01 01:15:00,SystemResetWarning,0824.7,5.01,000.00,029.7,028.4,000.0,038.0,031.4,21.4,0000.0,0003.33,0009.10,0002.24
2023-06-01 01:16:00,SystemResetWarning,0824.7,5.01,000.00,029.8,028.4,000.0,038.0,031.4,21.0,0000.0,0003.30,0008.98,0002.24
2023-06-01 01:17:00,SystemResetWarning,0824.7,5.00,000.00,029.8,028.4,000.0,038.0,031.4,21.1,0000.0,0003.27,0008.86,0002.25
2023-06-01 01:18:00,SystemResetWarning,0824.6,5.00,000.00,029.8,028.5,000.0,038.0,031.4,20.8,0000.0,0003.25,0008.72,0002.25
2023-06-01 01:19:00,SystemResetWarning,0824.6,4.98,000.00,029.8,027.4,000.0,038.0,031.3,19.9,0000.0,0003.24,0008.10,0002.24
2023-06-01 01:20:00,SystemResetWarning,0824.5,5.00,000.00,029.7,025.8,000.0,037.9,031.1,20.2,0000.0,0003.29,0008.25,0002.23
2023-06-01 01:21:00,SystemResetWarning,0824.5,5.01,000.00,029.7,025.4,000.0,037.8,031.0,19.8,0000.0,0003.31,0008.41,0002.25
2023-06-01 01:22:00,SystemResetWarning,0824.6,5.01,000.00,029.6,025.6,000.0,037.8,030.9,20.2,0000.0,0003.30,0008.74,0002.23
2023-06-01 01:23:00,SystemResetWarning,0824.6,4.99,000.00,029.5,025.9,000.0,037.8,030.9,20.9,0000.0,0003.35,0008.14,0002.24
2023-06-01 01:24:00,SystemResetWarning,0824.6,5.00,000.00,029.5,026.3,000.0,037.8,030.9,21.4,0000.0,0003.36,0008.45,0002.26
2023-06-01 01:25:00,SystemResetWarning,0824.6,5.00,000.00,029.4,026.6,000.0,037.8,030.9,21.6,0000.0,0003.35,0008.42,0002.27
2023-06-01 01:26:00,SystemResetWarning,0824.6,5.00,000.00,029.4,026.9,000.0,037.8,031.0,22.1,0000.0,0003.33,0008.37,0002.28
2023-06-01 01:27:00,SystemResetWarning,0824.6,5.00,000.00,029.4,027.2,000.0,037.8,031.0,22.7,0000.0,0003.34,0008.74,0002.28
2023-06-01 01:28:00,SystemResetWarning,0824.6,4.99,000.00,029.4,027.3,000.0,037.8,031.0,22.4,0000.0,0003.39,0009.19,0002.28
2023-06-01 01:29:00,SystemResetWarning,0824.7,4.99,000.00,029.4,027.5,000.0,037.8,031.0,23.0,0000.0,0003.48,0009.79,0002.28
2023-06-01 01:30:00,SystemResetWarning,0824.7,5.00,000.00,029.4,027.6,000.0,037.8,031.0,22.4,0000.0,0003.51,0010.03,0002.29
2023-06-01 01:31:00,SystemResetWarning,0824.7,5.00,000.00,029.5,027.7,000.0,037.8,031.1,22.0,0000.0,0003.52,0010.40,0002.29
2023-06-01 01:32:00,SystemResetWarning,0824.7,5.00,000.00,029.5,027.8,000.0,037.8,031.1,21.9,0000.0,0003.53,0010.63,0002.29
2023-06-01 01:33:00,SystemResetWarning,0824.7,5.00,000.00,029.5,027.9,000.0,037.8,031.1,21.6,0000.0,0003.57,0010.06,0002.30
2023-06-01 01:34:00,SystemResetWarning,0824.6,4.98,000.00,029.5,028.0,000.0,037.8,031.1,21.9,0000.0,0003.55,0009.91,0002.30
2023-06-01 01:35:00,SystemResetWarning,0824.7,5.00,000.00,029.5,028.0,000.0,037.8,031.2,23.3,0000.0,0003.60,0009.83,0002.32
2023-06-01 01:36:00,SystemResetWarning,0824.7,5.01,000.00,029.5,028.1,000.0,037.8,031.2,22.8,0000.0,0003.64,0009.86,0002.34
2023-06-01 01:37:00,SystemResetWarning,0824.8,5.00,000.00,029.6,028.1,000.0,037.9,031.2,21.5,0000.0,0003.67,0010.40,0002.35
2023-06-01 01:38:00,SystemResetWarning,0824.8,5.00,000.00,029.6,028.1,000.0,037.9,031.2,21.4,0000.0,0003.70,0010.39,0002.35
2023-06-01 01:39:00,SystemResetWarning,0824.7,5.00,000.00,029.6,028.2,000.0,037.9,031.3,21.4,0000.0,0003.71,0010.16,0002.37
2023-06-01 01:40:00,SystemResetWarning,0824.8,4.99,000.00,029.6,028.2,000.0,037.9,031.3,21.8,0000.0,0003.66,0009.63,0002.38
2023-06-01 01:41:00,SystemResetWarning,0824.8,4.99,000.00,029.6,028.2,000.0,037.9,031.3,21.6,0000.0,0003.68,0009.60,0002.38
2023-06-01 01:42:00,SystemResetWarning,0824.8,5.00,000.00,029.6,028.3,000.0,037.9,031.3,21.3,0000.0,0003.67,0009.14,0002.39
2023-06-01 01:43:00,SystemResetWarning,0824.9,5.01,000.00,029.7,028.3,000.0,037.9,031.3,20.8,0000.0,0003.65,0008.85,0002.39
2023-06-01 01:44:00,SystemResetWarning,0824.8,5.00,000.00,029.7,028.3,000.0,037.9,031.3,20.4,0000.0,0003.61,0009.08,0002.38
2023-06-01 01:45:00,SystemResetWarning,0824.9,4.99,000.00,029.7,028.3,000.0,038.0,031.3,20.1,0000.0,0003.61,0009.07,0002.40
2023-06-01 01:46:00,SystemResetWarning,0824.9,5.00,000.00,029.7,028.3,000.0,038.0,031.4,20.1,0000.0,0003.57,0009.29,0002.41
2023-06-01 01:47:00,SystemResetWarning,0824.9,5.00,000.00,029.7,028.3,000.0,038.0,031.4,20.1,0000.0,0003.56,0009.50,0002.39
2023-06-01 01:48:00,SystemResetWarning,0824.8,5.00,000.00,029.7,028.4,000.0,038.0,031.4,21.6,0000.0,0003.54,0008.86,0002.40
2023-06-01 01:49:00,SystemResetWarning,0824.9,5.00,000.00,029.7,028.4,000.0,038.0,031.4,22.1,0000.0,0003.52,0009.41,0002.40
2023-06-01 01:50:00,SystemResetWarning,0824.9,5.00,000.00,029.7,028.4,000.0,038.0,031.3,22.2,0000.0,0003.54,0010.07,0002.41
2023-06-01 01:51:00,SystemResetWarning,0824.9,5.01,000.00,029.7,028.3,000.0,038.0,031.3,23.1,0000.0,0003.54,0010.48,0002.40
2023-06-01 01:52:00,SystemResetWarning,0824.9,5.00,000.00,029.7,028.3,000.0,038.0,031.3,23.5,0000.0,0003.48,0011.03,0002.39
2023-06-01 01:53:00,SystemResetWarning,0824.9,5.00,000.00,029.7,028.3,000.0,038.0,031.3,23.9,0000.0,0003.41,0011.34,0002.37
2023-06-01 01:54:00,SystemResetWarning,0824.9,5.00,000.00,029.7,028.3,000.0,038.1,031.3,24.3,0000.0,0003.38,0011.35,0002.35
2023-06-01 01:55:00,SystemResetWarning,0824.9,4.99,000.00,029.7,028.3,000.0,038.1,031.3,24.2,0000.0,0003.38,0011.22,0002.34
2023-06-01 01:56:00,SystemResetWarning,0824.9,4.99,000.00,029.7,028.3,000.0,038.1,031.3,23.9,0000.0,0003.40,0011.48,0002.35
2023-06-01 01:57:00,SystemResetWarning,0824.9,5.00,000.00,029.7,028.3,000.0,038.1,031.3,23.2,0000.0,0003.44,0012.20,0002.35
2023-06-01 01:58:00,SystemResetWarning,0824.9,5.00,000.00,029.7,028.3,000.0,038.1,031.3,22.9,0000.0,0003.44,0011.57,0002.34
2023-06-01 01:59:00,SystemResetWarning,0824.9,5.00,000.00,029.7,028.3,000.0,038.1,031.3,22.7,0000.0,0003.41,0011.55,0002.31
